Printer-friendly version
Follow the MPC on Twitter Follow the MPC on Facebook The MPC blog
Minor Planet Center

MPEC 2008-G36 : 2008 FC76

The following Minor Planet Electronic Circular may be linked-to from your own Web pages, but must not otherwise be redistributed electronically.

A form allowing access to any MPEC is at the bottom of this page.


Read MPEC 2008-G35 Read MPEC 2008-G37


M.P.E.C. 2008-G36                                Issued 2008 Apr. 7, 21:16 UT

     The Minor Planet Electronic Circulars contain information on unusual
         minor planets and routine data on comets.  They are published
   on behalf of Commission 20 of the International Astronomical Union by the
          Minor Planet Center, Smithsonian Astrophysical Observatory,
                          Cambridge, MA 02138, U.S.A.

             Prepared using the Tamkin Foundation Computer Network

                              MPC@CFA.HARVARD.EDU
          URL http://www.cfa.harvard.edu/iau/mpc.html  ISSN 1523-6714

                                   2008 FC76

Observations:
     K08F76C* C2008 03 31.48985 21 06 24.33 +09 20 38.1          20.1 V EG036G96
     K08F76C  C2008 03 31.49479 21 06 24.40 +09 20 39.2          20.2 V EG036G96
     K08F76C  C2008 03 31.49970 21 06 24.51 +09 20 39.7          19.9 V EG036G96
     K08F76C  C2008 03 31.50462 21 06 24.55 +09 20 41.0          20.3 V EG036G96
     K08F76C  C2008 04 01.47567 21 06 39.78 +09 23 35.7          19.9 V EG036G96
     K08F76C  C2008 04 01.48031 21 06 39.85 +09 23 37.7          20.3 V EG036G96
     K08F76C  C2008 04 01.48495 21 06 39.92 +09 23 38.2          20.2 V EG036G96
     K08F76C  C2008 04 01.48960 21 06 39.96 +09 23 39.6          20.8 V EG036G96
     K08F76C  C2008 04 03.48140 21 07 10.42 +09 29 41.0          20.4 V EG036G96
     K08F76C  C2008 04 03.48530 21 07 10.47 +09 29 41.9          20.3 V EG036G96
     K08F76C  C2008 04 03.48928 21 07 10.55 +09 29 42.8          20.4 V EG036G96
     K08F76C  C2008 04 03.49316 21 07 10.56 +09 29 43.3          20.2 V EG036G96
     K08F76C 5C2008 04 04.51123 21 07 25.77 +09 32 48.9          19.8   EG036673
     K08F76C 5C2008 04 04.51551 21 07 25.84 +09 32 49.8                 EG036673
     K08F76C 5C2008 04 04.52338 21 07 25.94 +09 32 51.1                 EG036673
     K08F76C 5C2008 04 04.52743 21 07 26.01 +09 32 52.3                 EG036673
     K08F76C IC2008 04 05.46495 21 07 39.80 +09 35 43.7                 EG036711
     K08F76C  C2008 04 05.47639 21 07 39.95 +09 35 45.1                 EG036711
     K08F76C  C2008 04 05.48041 21 07 40.01 +09 35 45.7          20.2 V EG036G96
     K08F76C  C2008 04 05.48260 21 07 40.03 +09 35 45.9          20.3 V EG036G96
     K08F76C  C2008 04 05.48478 21 07 40.08 +09 35 46.5          20.2 V EG036G96
     K08F76C  C2008 04 05.48700 21 07 40.09 +09 35 46.7          20.4 V EG036G96
     K08F76C sC2008 04 05.48783 21 07 40.15 +09 35 46.2                 EG036711
     K08F76C  C2008 04 06.46837 21 07 54.35 +09 38 46.6                 EG036711
     K08F76C fC2008 04 06.48101 21 07 54.47 +09 38 48.6                 EG036711
     K08F76C  C2008 04 06.48838 21 07 54.56 +09 38 49.7          20.1 V EG036G96
     K08F76C  C2008 04 06.49179 21 07 54.62 +09 38 50.2          20.1 V EG036G96
     K08F76C  C2008 04 06.49512 21 07 54.64 +09 38 51.4                 EG036291
     K08F76C  C2008 04 06.49523 21 07 54.67 +09 38 51.0          20.2 V EG036G96
     K08F76C  C2008 04 06.49861 21 07 54.71 +09 38 51.5          20.2 V EG036G96
     K08F76C  C2008 04 06.50071 21 07 54.70 +09 38 52.5                 EG036291
     K08F76C  C2008 04 06.50614 21 07 54.77 +09 38 53.5                 EG036291
     K08F76C 5C2008 04 06.50868 21 07 54.85 +09 38 53.7          20.0   EG036673
     K08F76C 5C2008 04 06.51470 21 07 54.95 +09 38 54.8                 EG036673
     K08F76C 5C2008 04 06.51933 21 07 55.01 +09 38 55.6                 EG036673
     K08F76C 5C2008 04 06.52257 21 07 55.06 +09 38 56.1                 EG036673
     K08F76C  C2008 04 07.47158 21 08 08.54 +09 41 49.3                 EG036711
     K08F76C  C2008 04 07.47829 21 08 08.64 +09 41 51.1          20.2 V EG036G96
     K08F76C  C2008 04 07.48033 21 08 08.76 +09 41 51.5                 EG036711
     K08F76C  C2008 04 07.48221 21 08 08.65 +09 41 51.4          20.3 V EG036G96
     K08F76C  C2008 04 07.48616 21 08 08.73 +09 41 52.1          20.1 V EG036G96
     K08F76C  C2008 04 07.48872 21 08 08.84 +09 41 53.6                 EG036711
     K08F76C  C2008 04 07.49019 21 08 08.78 +09 41 53.0          20.5 V EG036G96

Observer details:
291 LPL/Spacewatch II.  Observer M. T. Read.  1.8-m f/2.7 reflector + CCD.
673 Table Mountain Observatory, Wrightwood.  Observers J. Young, A. Sullivan.
    Measurer J. Young.  0.61-m f/16 Cassegrain + CCD.
711 McDonald Observatory.  Observer J. G. Ries.  0.76-m reflector + CCD
    + prime-focus corrector.
G96 Mt. Lemmon Survey.  Observers A. Boattini, R. E. Hill, S. M. Larson,
    A. R. Gibbs.  Measurers E. C. Beshore, A. Boattini, G. J. Garradd,
    A. R. Gibbs, A. D. Grauer, R. E. Hill, R. A. Kowalski, S. M. Larson,
    R. H. McNaught.  1.5-m reflector + CCD.

Orbital elements:
2008 FC76
Epoch 2008 Apr. 4.0 TT = JDT 2454560.5                  MPC
M 351.78659              (2000.0)            P               Q
n   0.01278420     Peri.   90.66056     +0.82285676     +0.38097937
a  18.1142541      Node   247.01809     -0.49084627     +0.85037515
e   0.3364714      Incl.   27.25603     +0.28631571     +0.36292812
P  77.1            H    8.9           G   0.15
From 43 observations 2008 Mar. 31-Apr. 7.  E-assumed.

Ephemeris:
2008 FC76                a,e,i = 18.11, 0.34, 27                 q = 12.019
Date    TT    R. A. (2000) Decl.     Delta      r     Elong.  Phase     V
2008 04 04    21 07.30   +09 31.3   12.690   12.160    56.1     3.9    20.2
2008 04 14    21 09.58   +10 01.8   12.561   12.156    64.1     4.3    20.2
2008 04 24    21 11.43   +10 32.1   12.421   12.151    72.2     4.5    20.2
2008 05 04    21 12.81   +11 01.8   12.273   12.147    80.5     4.7    20.2
2008 05 14    21 13.69   +11 30.2   12.122   12.143    88.8     4.8    20.1
2008 05 24    21 14.06   +11 56.6   11.971   12.139    97.2     4.7    20.1
2008 06 03    21 13.92   +12 20.4   11.824   12.135   105.6     4.6    20.1
2008 06 13    21 13.28   +12 41.0   11.684   12.131   113.9     4.4    20.0
2008 06 23    21 12.18   +12 57.9   11.557   12.127   122.1     4.1    20.0
2008 07 03    21 10.67   +13 10.5   11.445   12.124   130.0     3.7    20.0
2008 07 13    21 08.81   +13 18.6   11.353   12.120   137.4     3.3    19.9
2008 07 23    21 06.69   +13 21.8   11.281   12.116   143.8     2.8    19.9
2008 08 02    21 04.42   +13 20.3   11.234   12.113   148.7     2.5    19.8
2008 08 12    21 02.09   +13 14.2   11.212   12.109   151.1     2.3    19.8
2008 08 22    20 59.83   +13 03.8   11.216   12.106   150.4     2.4    19.8
2008 09 01    20 57.74   +12 49.8   11.246   12.102   146.7     2.6    19.9
2008 09 11    20 55.94   +12 32.8   11.302   12.099   140.8     3.0    19.9
2008 09 21    20 54.51   +12 13.8   11.380   12.096   133.7     3.4    19.9
2008 10 01    20 53.52   +11 53.7   11.479   12.093   125.8     3.8    20.0

Sonia Keys                   (C) Copyright 2008 MPC           M.P.E.C. 2008-G36

Read MPEC 2008-G35 Read MPEC 2008-G37


MPEC number:

Enter an MPEC number in one of the following forms:

  • 1997-B01 (the full form)
  • J97B01 (the packed version of the full form)
  • B01 (the abbreviated form)

Valid HTML 4.01!